ONEWEB-0297, 49086

Orbit data source: Space-Track

ONEWEB-0297, 49086 is a payload satellite owned by One Web (NAA) (UK) in LEO that was launched on Sat, 21 Aug 2021 UTC via a SOYUZ-2-1B launch vehicle from the Tyuratam Missile And Space Complex (TTMTR). Payload-class satellites include a variety of spacecraft equipped with specific instruments for various scientific and technological missions. These include communications satellites like Starlink; space stations such as the ISS; scientific satellites like the Hubble; Earth observation satellites from companies like Planet Labs, Umbra, and HawkEye 360; GPS; miniature CubeSats for education and research; and military/defense satellites.

Loading next visibility...
Identifier
49086, 2021-075M
Orbit
LEO
Country
Flag of UKUK
Related business
Manufacturer
One Web
Mission
Operational Commercial Communications
Bus & Motor
ARROW, Unknown motor
Mass
148 kg wet, ~140 kg dry
Launch date (UTC)
2021-08-21 (5 years ago)
Launch vehicle
SOYUZ-2-1B
Launch site
Tyuratam Missile And Space Complex (TTMTR)
Object type
Payload
Rocket body
Debris
Shape & HBR
Trap Box + 2 Pan, 6.7 m
Radar Cross Section
3.464 m², Medium (>0.1 m² and < 1m²)

Expand to show TLE details & history
Last TLE update: 8 hours ago

TLE from 8 hours ago
0 ONEWEB-0297
1 49086U 21075M   26130.14581698  .00000193  00000-0  50023-3 0  9992
2 49086  87.8968 358.2434 0001744  86.6501 273.4827 13.12445980230191
Epoch: 2026-05-10T03:29Z
TLE epoch observation values (Epoch: 2026-05-10T03:29:58.587Z)
Latitude
-0°
Longitude
77.79619°
Altitude
1,216.522 km
Speed
7.246 km/s
True Right ascension
23h 52m 58s
True Declination
0° 00' 00"
Sunlit
Object was in daylight at epoch
Visualization orbit readout
Latitude
Unknown
Longitude
Unknown
Altitude
Unknown
Speed
Unknown
Apparent Right ascension
Unknown
Apparent Declination
Unknown
Sunlit
N/A
Visualization observer readout
Local Sidereal Time
19:49:17
Azimuth
Unknown
Elevation
Unknown
Doppler factor
Unknown
Orbital elements
Apogee altitude
1,212.152 km
Perigee altitude
1,209.505 km
Semi-major axis
7,588.965 km
Eccentricity
0.00017
Inclination
87.8968°
RAAN
358.2434°
Arg. of periapsis
86.6501°
True anomaly
273.46275°
Mean anomaly
273.4827°
Eccentric anomaly
273.47273°
Mean motion
3.28299 °/min
Orbital period
109.66 mins
BSTAR
0.00050023
Loading maneuver chart data...
Computing Atmospheric mass density...
Loading historical data...
Loading historical data...
Loading historical data...
Loading historical data...
Loading historical data...
Loading historical data...
Loading historical data...

Documentation

Showing up to 5 results
|